Location: Carrizalito
(10.3833°N, 67.0217°W)
Time: 05:07:34
(UTC+00:00)

X-37B - Visible Passes

Search period start: 30 November 2022 00:00
Search period end: 10 December 2022 00:00
Orbit: 277 x 277 km, 45.0° (Epoch: 01 November)

Date Brightness Start Highest point End Pass type
(mag) Time Alt. Az. Time Alt. Az. Time Alt. Az.
30 Nov 3.0 09:01:04 12° NE 09:01:04 12° NE 09:01:53 10° ENE visible
30 Nov 2.1 23:24:06 10° WSW 23:25:53 23° WNW 23:25:53 23° WNW visible
01 Dec 2.3 09:02:18 25° E 09:02:18 25° E 09:03:42 10° ESE visible
02 Dec 2.4 09:03:31 20° SSE 09:03:31 20° SSE 09:04:27 10° SSE visible
